GLO2624 SBFI-SBSP

Flight info

Callsign GLO2624
Flight time 1h 13m
Altitude 37000
Route KAMIL UM548 DOSMU DCT ANISE
Aircraft B738/M-SDE2E3FGHIRWXY/LB1

Departure

Time 2026-04-22 20:17
Airport Cataratas International Airport (SBFI)

Arrival

Time 2026-04-22 21:30
Airport Congonhas–Deputado Freitas Nobre Airport (SBSP)
Time Latitude Longitude Altitude Speed Heading
2026-04-22 20:05 -25.59665 -54.48885 764 ft 0 kts 222°
2026-04-22 20:08 -25.59661 -54.48881 804 ft 2 kts 222°
2026-04-22 20:08 -25.59649 -54.48869 782 ft 2 kts 222°
2026-04-22 20:08 -25.59637 -54.48857 782 ft 2 kts 222°
2026-04-22 20:09 -25.59625 -54.48844 782 ft 2 kts 238°
2026-04-22 20:09 -25.59620 -54.48827 782 ft 2 kts 281°
2026-04-22 20:09 -25.59623 -54.48816 782 ft 1 kts 301°
2026-04-22 20:11 -25.59619 -54.48831 782 ft 5 kts 285°
2026-04-22 20:11 -25.59602 -54.48868 782 ft 6 kts 306°
2026-04-22 20:11 -25.59567 -54.48914 781 ft 8 kts 316°
2026-04-22 20:12 -25.59517 -54.48916 782 ft 8 kts 34°
2026-04-22 20:12 -25.59469 -54.48895 782 ft 8 kts 348°
2026-04-22 20:12 -25.59440 -54.48916 782 ft 8 kts 316°
2026-04-22 20:12 -25.59395 -54.48973 780 ft 7 kts 310°
2026-04-22 20:13 -25.59363 -54.49014 780 ft 7 kts 310°
2026-04-22 20:13 -25.59332 -54.49055 779 ft 7 kts 310°
2026-04-22 20:13 -25.59301 -54.49094 778 ft 7 kts 312°
2026-04-22 20:13 -25.59265 -54.49139 778 ft 9 kts 310°
2026-04-22 20:14 -25.59216 -54.49202 776 ft 12 kts 311°
2026-04-22 20:14 -25.59153 -54.49282 774 ft 15 kts 310°
2026-04-22 20:14 -25.59079 -54.49377 773 ft 17 kts 311°
2026-04-22 20:14 -25.58997 -54.49476 771 ft 17 kts 323°
2026-04-22 20:15 -25.58926 -54.49531 770 ft 6 kts 273°
2026-04-22 20:15 -25.58949 -54.49539 770 ft 4 kts 148°
2026-04-22 20:15 -25.58968 -54.49518 770 ft 0 kts 131°
2026-04-22 20:16 -25.59006 -54.49470 771 ft 39 kts 131°
2026-04-22 20:16 -25.59383 -54.48988 780 ft 124 kts 131°
2026-04-22 20:16 -25.60073 -54.48098 1021 ft 171 kts 130°
2026-04-22 20:17 -25.60766 -54.47106 2253 ft 148 kts 126°
2026-04-22 20:17 -25.61369 -54.46264 3285 ft 141 kts 133°
2026-04-22 20:17 -25.62113 -54.45381 3670 ft 174 kts 133°
2026-04-22 20:17 -25.63012 -54.44280 4018 ft 212 kts 131°
2026-04-22 20:18 -25.64040 -54.42983 4533 ft 231 kts 130°
2026-04-22 20:18 -25.65106 -54.41617 5319 ft 237 kts 131°
2026-04-22 20:18 -25.66165 -54.40186 6134 ft 249 kts 124°
2026-04-22 20:18 -25.66815 -54.38289 6521 ft 281 kts 92°
2026-04-22 20:19 -25.66627 -54.36114 7364 ft 288 kts 79°
2026-04-22 20:19 -25.66244 -54.33954 8336 ft 291 kts 78°
2026-04-22 20:19 -25.65844 -54.31736 9308 ft 296 kts 78°
2026-04-22 20:19 -25.65469 -54.29473 10213 ft 301 kts 79°
2026-04-22 20:20 -25.65111 -54.27115 10701 ft 323 kts 80°
2026-04-22 20:20 -25.64753 -54.24572 11141 ft 342 kts 81°
2026-04-22 20:20 -25.64403 -54.21937 11951 ft 347 kts 81°
2026-04-22 20:20 -25.64063 -54.19283 12859 ft 349 kts 81°
2026-04-22 20:21 -25.63726 -54.16603 13718 ft 353 kts 81°
2026-04-22 20:21 -25.63394 -54.13932 14438 ft 358 kts 81°
2026-04-22 20:21 -25.63051 -54.11175 15117 ft 364 kts 82°
2026-04-22 20:21 -25.62705 -54.08377 15841 ft 368 kts 82°
2026-04-22 20:22 -25.62354 -54.05549 16576 ft 373 kts 82°
2026-04-22 20:22 -25.61999 -54.02684 17283 ft 377 kts 82°
2026-04-22 20:22 -25.61638 -53.99783 17962 ft 383 kts 82°
2026-04-22 20:22 -25.61272 -53.96843 18593 ft 388 kts 82°
2026-04-22 20:23 -25.60899 -53.93854 19155 ft 394 kts 82°
2026-04-22 20:23 -25.60520 -53.90829 19734 ft 399 kts 82°
2026-04-22 20:23 -25.60137 -53.87772 20304 ft 404 kts 82°
2026-04-22 20:23 -25.59754 -53.84720 20877 ft 408 kts 82°
2026-04-22 20:24 -25.59361 -53.81592 21430 ft 413 kts 82°
2026-04-22 20:24 -25.58961 -53.78416 21962 ft 419 kts 82°
2026-04-22 20:24 -25.58632 -53.75195 22500 ft 423 kts 87°
2026-04-22 20:24 -25.58565 -53.71920 23027 ft 428 kts 91°
2026-04-22 20:25 -25.58619 -53.68610 23553 ft 432 kts 92°
2026-04-22 20:25 -25.58702 -53.65267 23982 ft 436 kts 92°
2026-04-22 20:25 -25.58776 -53.61896 24421 ft 440 kts 91°
2026-04-22 20:25 -25.58830 -53.58493 24862 ft 443 kts 91°
2026-04-22 20:26 -25.58866 -53.55110 25287 ft 447 kts 91°
2026-04-22 20:26 -25.58892 -53.51652 25703 ft 451 kts 90°
2026-04-22 20:26 -25.58911 -53.48167 26129 ft 455 kts 90°
2026-04-22 20:26 -25.58927 -53.44645 26540 ft 458 kts 90°
2026-04-22 20:27 -25.58941 -53.41102 26953 ft 462 kts 90°
2026-04-22 20:27 -25.58956 -53.37528 27357 ft 466 kts 90°
2026-04-22 20:27 -25.58971 -53.33928 27749 ft 469 kts 90°
2026-04-22 20:27 -25.58985 -53.30305 28131 ft 473 kts 90°
2026-04-22 20:28 -25.58999 -53.26653 28492 ft 476 kts 90°
2026-04-22 20:28 -25.59011 -53.23013 28861 ft 480 kts 90°
2026-04-22 20:28 -25.59023 -53.19312 29231 ft 483 kts 90°
2026-04-22 20:28 -25.59035 -53.15574 29598 ft 486 kts 90°
2026-04-22 20:29 -25.59045 -53.11819 29934 ft 490 kts 90°
2026-04-22 20:29 -25.59055 -53.08033 30233 ft 493 kts 90°
2026-04-22 20:29 -25.59064 -53.04222 30542 ft 496 kts 90°
2026-04-22 20:29 -25.59071 -53.00403 30865 ft 497 kts 90°
2026-04-22 20:30 -25.59077 -52.96568 31160 ft 498 kts 90°
2026-04-22 20:30 -25.59082 -52.92722 31367 ft 500 kts 90°
2026-04-22 20:30 -25.59086 -52.88912 31531 ft 503 kts 90°
2026-04-22 20:30 -25.59089 -52.85034 31722 ft 505 kts 90°
2026-04-22 20:31 -25.59092 -52.81139 31932 ft 506 kts 90°
2026-04-22 20:31 -25.59093 -52.77245 32153 ft 507 kts 90°
2026-04-22 20:31 -25.59093 -52.73340 32414 ft 506 kts 90°
2026-04-22 20:31 -25.59092 -52.69442 32713 ft 506 kts 90°
2026-04-22 20:32 -25.59091 -52.65548 33028 ft 505 kts 90°
2026-04-22 20:32 -25.59088 -52.61666 33294 ft 505 kts 90°
2026-04-22 20:32 -25.59085 -52.57776 33567 ft 505 kts 90°
2026-04-22 20:32 -25.59080 -52.53950 33867 ft 504 kts 90°
2026-04-22 20:33 -25.59074 -52.50071 34163 ft 504 kts 90°
2026-04-22 20:33 -25.59067 -52.46192 34442 ft 503 kts 90°
2026-04-22 20:33 -25.59059 -52.42316 34718 ft 503 kts 90°
2026-04-22 20:33 -25.59050 -52.38444 34983 ft 502 kts 90°
2026-04-22 20:34 -25.59040 -52.34575 35259 ft 502 kts 90°
2026-04-22 20:34 -25.59030 -52.30722 35575 ft 500 kts 90°
2026-04-22 20:34 -25.59018 -52.26866 35865 ft 500 kts 90°
2026-04-22 20:34 -25.59005 -52.23070 36127 ft 500 kts 89°
2026-04-22 20:35 -25.58991 -52.19216 36390 ft 500 kts 89°
2026-04-22 20:35 -25.58976 -52.15365 36690 ft 499 kts 89°
2026-04-22 20:35 -25.58960 -52.11527 37031 ft 498 kts 89°
2026-04-22 20:36 -25.58926 -52.03810 37062 ft 501 kts 89°
2026-04-22 20:36 -25.58887 -51.96106 37057 ft 499 kts 89°
2026-04-22 20:37 -25.58844 -51.88488 37074 ft 497 kts 89°
2026-04-22 20:37 -25.58798 -51.80849 37070 ft 495 kts 89°
2026-04-22 20:38 -25.58748 -51.73228 37081 ft 494 kts 89°
2026-04-22 20:38 -25.58693 -51.65611 37077 ft 494 kts 89°
2026-04-22 20:39 -25.58636 -51.58001 37084 ft 495 kts 89°
2026-04-22 20:39 -25.58574 -51.50434 37084 ft 495 kts 89°
2026-04-22 20:40 -25.58509 -51.42790 37086 ft 496 kts 89°
2026-04-22 20:40 -25.58439 -51.35138 37094 ft 498 kts 89°
2026-04-22 20:41 -25.58366 -51.27461 37088 ft 499 kts 89°
2026-04-22 20:41 -25.58291 -51.19776 37091 ft 499 kts 89°
2026-04-22 20:42 -25.58211 -51.12137 37096 ft 500 kts 89°
2026-04-22 20:42 -25.58128 -51.04431 37093 ft 500 kts 89°
2026-04-22 20:43 -25.58037 -50.96720 37090 ft 500 kts 89°
2026-04-22 20:43 -25.57940 -50.89025 37085 ft 500 kts 89°
2026-04-22 20:44 -25.57839 -50.81318 37088 ft 500 kts 89°
2026-04-22 20:44 -25.57734 -50.73670 37083 ft 500 kts 89°
2026-04-22 20:45 -25.57626 -50.65986 37086 ft 499 kts 89°
2026-04-22 20:45 -25.57514 -50.58292 37081 ft 499 kts 89°
2026-04-22 20:46 -25.57338 -50.46761 37080 ft 499 kts 89°
2026-04-22 20:46 -25.57217 -50.39138 37084 ft 499 kts 89°
2026-04-22 20:47 -25.57091 -50.31441 37090 ft 499 kts 89°
2026-04-22 20:47 -25.56960 -50.23759 37086 ft 499 kts 89°
2026-04-22 20:48 -25.56827 -50.16080 37093 ft 499 kts 89°
2026-04-22 20:48 -25.56693 -50.08448 37085 ft 499 kts 89°
2026-04-22 20:49 -25.56469 -50.00768 37088 ft 499 kts 87°
2026-04-22 20:49 -25.56113 -49.93095 37087 ft 499 kts 88°
2026-04-22 20:50 -25.55792 -49.85410 37085 ft 499 kts 88°
2026-04-22 20:50 -25.55473 -49.77776 37093 ft 499 kts 88°
2026-04-22 20:51 -25.55144 -49.70097 37093 ft 500 kts 88°
2026-04-22 20:51 -25.54809 -49.62412 37091 ft 500 kts 88°
2026-04-22 20:52 -25.54467 -49.54717 37100 ft 500 kts 88°
2026-04-22 20:52 -25.54122 -49.47042 37116 ft 500 kts 88°
2026-04-22 20:53 -25.53788 -49.39409 37133 ft 500 kts 89°
2026-04-22 20:53 -25.53609 -49.31715 37150 ft 499 kts 90°
2026-04-22 20:54 -25.53408 -49.24029 37157 ft 499 kts 89°
2026-04-22 20:54 -25.53137 -49.16351 37152 ft 500 kts 84°
2026-04-22 20:55 -25.51919 -49.08786 37154 ft 500 kts 79°
2026-04-22 20:55 -25.50576 -49.01300 37154 ft 499 kts 79°
2026-04-22 20:56 -25.49277 -48.93750 37121 ft 499 kts 79°
2026-04-22 20:56 -25.47989 -48.86202 37121 ft 498 kts 79°
2026-04-22 20:57 -25.46692 -48.78677 37097 ft 498 kts 79°
2026-04-22 20:57 -25.45393 -48.71194 37104 ft 499 kts 79°
2026-04-22 20:58 -25.44086 -48.63655 37088 ft 499 kts 79°
2026-04-22 20:58 -25.42778 -48.56113 37092 ft 499 kts 79°
2026-04-22 20:59 -25.41464 -48.48564 37080 ft 500 kts 80°
2026-04-22 20:59 -25.40152 -48.41076 37087 ft 500 kts 79°
2026-04-22 21:00 -25.38825 -48.33530 37084 ft 500 kts 80°
2026-04-22 21:00 -25.37495 -48.25990 37083 ft 500 kts 80°
2026-04-22 21:01 -25.36163 -48.18449 37087 ft 500 kts 80°
2026-04-22 21:01 -25.34829 -48.10912 37081 ft 500 kts 80°
2026-04-22 21:02 -25.33500 -48.03422 37084 ft 500 kts 80°
2026-04-22 21:02 -25.32159 -47.95892 37082 ft 500 kts 80°
2026-04-22 21:03 -25.30815 -47.88356 37077 ft 500 kts 80°
2026-04-22 21:03 -25.29466 -47.80828 37086 ft 499 kts 80°
2026-04-22 21:04 -25.28112 -47.73301 37089 ft 499 kts 80°
2026-04-22 21:04 -25.26765 -47.65821 37083 ft 500 kts 80°
2026-04-22 21:05 -25.25403 -47.58296 37086 ft 499 kts 80°
2026-04-22 21:05 -25.24035 -47.50778 37079 ft 499 kts 79°
2026-04-22 21:06 -25.23063 -47.47095 37068 ft 501 kts 68°
2026-04-22 21:06 -25.21554 -47.43647 37097 ft 500 kts 59°
2026-04-22 21:06 -25.17376 -47.37617 37114 ft 497 kts 47°
2026-04-22 21:07 -25.12886 -47.31800 37090 ft 498 kts 48°
2026-04-22 21:07 -25.10648 -47.28859 36656 ft 504 kts 49°
2026-04-22 21:07 -25.08395 -47.25884 36081 ft 504 kts 49°
2026-04-22 21:08 -25.06155 -47.22919 35390 ft 505 kts 49°
2026-04-22 21:08 -25.03903 -47.19936 34654 ft 507 kts 49°
2026-04-22 21:08 -25.01637 -47.16937 33902 ft 509 kts 49°
2026-04-22 21:08 -24.99412 -47.13996 33352 ft 504 kts 49°
2026-04-22 21:09 -24.97171 -47.11036 32755 ft 501 kts 49°
2026-04-22 21:09 -24.94947 -47.08102 32217 ft 497 kts 49°
2026-04-22 21:09 -24.92742 -47.05195 31683 ft 493 kts 49°
2026-04-22 21:09 -24.90550 -47.02309 31156 ft 489 kts 49°
2026-04-22 21:10 -24.88370 -46.99439 30609 ft 486 kts 49°
2026-04-22 21:10 -24.86206 -46.96592 30076 ft 484 kts 49°
2026-04-22 21:10 -24.84055 -46.93764 29474 ft 480 kts 49°
2026-04-22 21:10 -24.82641 -46.91907 29088 ft 477 kts 49°
2026-04-22 21:11 -24.79808 -46.88186 28336 ft 471 kts 49°
2026-04-22 21:11 -24.77738 -46.85470 27793 ft 467 kts 49°
2026-04-22 21:11 -24.75663 -46.82747 27255 ft 463 kts 49°
2026-04-22 21:11 -24.73601 -46.80044 26718 ft 459 kts 49°
2026-04-22 21:12 -24.72247 -46.78270 26356 ft 454 kts 49°
2026-04-22 21:12 -24.69577 -46.74773 25633 ft 439 kts 49°
2026-04-22 21:12 -24.68292 -46.73091 25295 ft 432 kts 49°
2026-04-22 21:12 -24.66372 -46.70578 24783 ft 427 kts 49°
2026-04-22 21:13 -24.64462 -46.68080 24268 ft 427 kts 49°
2026-04-22 21:13 -24.61887 -46.64827 23546 ft 425 kts 43°
2026-04-22 21:13 -24.59502 -46.62978 22942 ft 418 kts 21°
2026-04-22 21:13 -24.56732 -46.62293 22571 ft 403 kts 358°
2026-04-22 21:14 -24.53973 -46.62421 22206 ft 393 kts 354°
2026-04-22 21:14 -24.52167 -46.62508 21933 ft 390 kts 355°
2026-04-22 21:14 -24.48549 -46.62568 21405 ft 387 kts 357°
2026-04-22 21:14 -24.46769 -46.62568 21148 ft 386 kts 357°
2026-04-22 21:15 -24.44089 -46.62563 20765 ft 384 kts 358°
2026-04-22 21:15 -24.40563 -46.62562 20267 ft 381 kts 358°
2026-04-22 21:15 -24.37917 -46.62564 19836 ft 381 kts 358°
2026-04-22 21:15 -24.36123 -46.62566 19541 ft 381 kts 358°
2026-04-22 21:16 -24.33508 -46.62568 19079 ft 380 kts 358°
2026-04-22 21:16 -24.30879 -46.62569 18627 ft 377 kts 358°
2026-04-22 21:16 -24.28265 -46.62570 18147 ft 373 kts 358°
2026-04-22 21:16 -24.25684 -46.62571 17673 ft 369 kts 359°
2026-04-22 21:17 -24.23133 -46.62573 17221 ft 364 kts 359°
2026-04-22 21:17 -24.20618 -46.62574 16784 ft 359 kts 359°
2026-04-22 21:17 -24.18127 -46.62576 16364 ft 355 kts 359°
2026-04-22 21:17 -24.14881 -46.62578 15813 ft 350 kts 359°
2026-04-22 21:18 -24.13248 -46.62579 15539 ft 347 kts 359°
2026-04-22 21:18 -24.10845 -46.62581 15130 ft 344 kts 359°
2026-04-22 21:18 -24.08465 -46.62582 14728 ft 341 kts 359°
2026-04-22 21:18 -24.06136 -46.62584 14323 ft 339 kts 359°
2026-04-22 21:19 -24.03785 -46.62586 13928 ft 337 kts 360°
2026-04-22 21:19 -24.01445 -46.62587 13456 ft 335 kts 360°
2026-04-22 21:19 -23.99125 -46.62588 13048 ft 332 kts 360°
2026-04-22 21:19 -23.96817 -46.62589 12650 ft 330 kts 360°
2026-04-22 21:20 -23.94526 -46.62591 12259 ft 329 kts 360°
2026-04-22 21:20 -23.92247 -46.62592 11897 ft 328 kts 360°
2026-04-22 21:20 -23.89966 -46.62594 11517 ft 327 kts 360°
2026-04-22 21:20 -23.87725 -46.62595 11144 ft 327 kts 360°
2026-04-22 21:21 -23.85467 -46.62749 10741 ft 324 kts 348°
2026-04-22 21:21 -23.83456 -46.63701 10355 ft 312 kts 323°
2026-04-22 21:21 -23.81779 -46.65130 10031 ft 299 kts 321°
2026-04-22 21:21 -23.80106 -46.66433 9647 ft 291 kts 325°
2026-04-22 21:22 -23.78419 -46.67634 9302 ft 288 kts 326°
2026-04-22 21:22 -23.76730 -46.68802 9210 ft 290 kts 326°
2026-04-22 21:22 -23.75012 -46.69989 9185 ft 293 kts 326°
2026-04-22 21:22 -23.73325 -46.71157 9173 ft 290 kts 326°
2026-04-22 21:23 -23.71634 -46.72328 9123 ft 288 kts 327°
2026-04-22 21:23 -23.69922 -46.73516 8766 ft 293 kts 327°
2026-04-22 21:23 -23.68211 -46.74701 8433 ft 289 kts 327°
2026-04-22 21:23 -23.66521 -46.75872 8126 ft 286 kts 327°
2026-04-22 21:24 -23.64866 -46.77018 7807 ft 280 kts 327°
2026-04-22 21:24 -23.63223 -46.78157 7399 ft 280 kts 327°
2026-04-22 21:24 -23.61609 -46.79274 7035 ft 274 kts 327°
2026-04-22 21:24 -23.60032 -46.80366 6723 ft 263 kts 327°
2026-04-22 21:25 -23.58459 -46.81296 6402 ft 254 kts 340°
2026-04-22 21:25 -23.56751 -46.81441 6104 ft 245 kts 15°
2026-04-22 21:25 -23.55337 -46.80521 5880 ft 235 kts 44°
2026-04-22 21:25 -23.54346 -46.79152 5637 ft 227 kts 57°
2026-04-22 21:26 -23.53526 -46.77742 5410 ft 214 kts 58°
2026-04-22 21:26 -23.52752 -46.76398 5157 ft 204 kts 58°
2026-04-22 21:26 -23.52067 -46.75105 4954 ft 191 kts 69°
2026-04-22 21:26 -23.51967 -46.73762 4884 ft 175 kts 110°
2026-04-22 21:27 -23.52653 -46.72794 4778 ft 158 kts 141°
2026-04-22 21:27 -23.53506 -46.72062 4532 ft 157 kts 145°
2026-04-22 21:27 -23.54424 -46.71387 4379 ft 158 kts 147°
2026-04-22 21:27 -23.55311 -46.70765 4157 ft 144 kts 148°
2026-04-22 21:28 -23.56103 -46.70214 4052 ft 132 kts 148°
2026-04-22 21:28 -23.56901 -46.69659 3865 ft 139 kts 148°
2026-04-22 21:28 -23.57703 -46.69101 3690 ft 133 kts 148°
2026-04-22 21:28 -23.58481 -46.68585 3570 ft 130 kts 147°
2026-04-22 21:29 -23.59231 -46.68056 3398 ft 131 kts 145°
2026-04-22 21:29 -23.59989 -46.67486 3215 ft 134 kts 147°
2026-04-22 21:29 -23.60774 -46.66943 3044 ft 133 kts 148°
2026-04-22 21:29 -23.61564 -46.66422 2877 ft 131 kts 148°
2026-04-22 21:30 -23.62309 -46.65872 2617 ft 123 kts 152°
2026-04-22 21:30 -23.62946 -46.65450 2621 ft 90 kts 148°
2026-04-22 21:30 -23.63275 -46.65225 2633 ft 18 kts 149°
2026-04-22 21:30 -23.63389 -46.65214 2636 ft 14 kts 209°
2026-04-22 21:31 -23.63407 -46.65241 2636 ft 0 kts 257°
2026-04-22 21:33 -23.63407 -46.65260 2636 ft 5 kts 279°
2026-04-22 21:33 -23.63373 -46.65300 2635 ft 10 kts 326°
2026-04-22 21:33 -23.63304 -46.65349 2633 ft 14 kts 328°
2026-04-22 21:33 -23.63215 -46.65409 2630 ft 16 kts 328°
2026-04-22 21:34 -23.63111 -46.65481 2626 ft 19 kts 327°
2026-04-22 21:34 -23.62982 -46.65536 2622 ft 21 kts 333°
2026-04-22 21:34 -23.62860 -46.65632 2619 ft 22 kts 338°
2026-04-22 21:34 -23.62729 -46.65708 2615 ft 21 kts 330°
2026-04-22 21:35 -23.62610 -46.65794 2612 ft 20 kts 327°
2026-04-22 21:35 -23.62494 -46.65877 2608 ft 20 kts 326°
2026-04-22 21:35 -23.62403 -46.65943 2606 ft 0 kts 328°
2026-04-22 21:35 -23.62399 -46.65945 2605 ft 3 kts 328°
2026-04-22 21:36 -23.62357 -46.65973 2604 ft 10 kts 330°
2026-04-22 21:36 -23.62344 -46.66025 2603 ft 7 kts 253°
2026-04-22 21:36 -23.62352 -46.66063 2603 ft 0 kts 263°